Regional Weather Roundup
Issued by NWS Glasgow, MT

Home | Current Version | Previous Version | Text Only | Print | Product List | Glossary On
Versions: 1 2 3 4 5 6 7 8 9 10 11 12 13 14 15 16 17 18 19 20 21 22 23 24 25 26 27 28 29 30 31 32 33 34 35 36 37 38 39 40 41 42 43 44 45 46 47 48 49 50
000
ASUS45 KGGW 310815
RWRGGW
HOURLY REGIONAL WEATHER ROUNDUP FOR NORTHEAST MONTANA
NATIONAL WEATHER SERVICE GLASGOW MONTANA
200 AM MDT WED AUG 31 2016

NOTE: "FAIR" INDICATES FEW OR NO CLOUDS BELOW 12,000 FEET WITH NO
SIGNIFICANT WEATHER AND/OR OBSTRUCTIONS TO VISISBILITY.

NORTHEAST MONTANA


CITY           SKY/WX    TMP DP  RH WIND       PRES   REMARKS
GLASGOW        PTCLDY    70  54  56 E16       30.00F
PLENTYWOOD       N/A     68  45  43 E5G14       N/A
WOLF POINT     PTCLDY    68  52  56 E12       30.03F
JORDAN           N/A     61  55  81 CALM      30.00F
WINNETT          N/A     55  48  77 S2          N/A
SIDNEY         CLEAR     65  53  65 NE5       30.08F
GLENDIVE       CLEAR     65  59  81 NE3       30.07F
MALTA            N/A     66  58  75 NE3         N/A
SCOBEY           N/A     68  47  46 E12G18    30.06F

FORT PECK REPORTS


CITY           SKY/WX    TMP DP  RH WIND       PRES   REMARKS
FORT PECK        N/A     68  56  65 E20         N/A
THE PINES        N/A     70  60  70 E3          N/A

SOUTHEAST MONTANA


CITY           SKY/WX    TMP DP  RH WIND       PRES   REMARKS
BILLINGS       CLOUDY    68  45  43 CALM      30.03F
MILES CITY     PTCLDY    73  52  47 S13       30.01F
BAKER          CLEAR     63  56  78 E9        30.11F
LIVINGSTON     CLOUDY    64  41  42 SW3       30.09S

CENTRAL MONTANA


CITY           SKY/WX    TMP DP  RH WIND       PRES   REMARKS
HAVRE          CLOUDY    64  54  69 E9        29.98F
LEWISTOWN      CLOUDY    63  48  58 SE10      30.08S
GREAT FALLS    CLOUDY    63  44  50 CALM      30.00S
CUT BANK       MOCLDY    69  49  48 E10       30.02F
HELENA         PTCLDY    64  40  41 W8        30.01F
BUTTE          CLOUDY    66  33  29 E5        30.13S
BOZEMAN        CLEAR     57  41  55 CALM      30.06R

WESTERN MONTANA


CITY           SKY/WX    TMP DP  RH WIND       PRES   REMARKS
MISSOULA       CLEAR     66  39  37 VRB5      29.95R
KALISPELL      NOT AVBL

NORTH DAKOTA


CITY           SKY/WX    TMP DP  RH WIND       PRES   REMARKS
WILLISTON      CLEAR     68  51  54 E9        30.12F
DICKINSON      CLEAR     58  55  90 E10       30.13S
MINOT          MOCLDY    59  53  80 E5        30.19F
BISMARCK       CLEAR     62  54  74 NE9       30.19F

SOUTHERN SASKATCHEWAN


CITY           SKY/WX    TMP DP  RH WIND       PRES   REMARKS
REGINA         CLEAR     61  50  67 E16G23    30.17F
ESTEVAN        CLEAR     57  50  77 E12       30.17F
SWIFT CURRENT  CLEAR     59  52  77 E10       30.08F




USA.gov is the U.S. government's official web portal to all federal, state and local government web resources and services.